Location: Running Springs
(34.2078°N, 117.1092°W)
Time: 15:33:51
(UTC+00:00)

Cosmos 1470 Rocket - Pass Details

Date: 13 April 2024
Orbit: 601 x 629 km, 82.5° (Epoch: 26 May)

Event Time Altitude Azimuth Distance (km) Brightness Sun altitude
Rises 12:25:08 0° 348° (NNW) 2,888 7.1 -11.6°
Reaches altitude 10° 12:27:22 10° 345° (NNW) 1,984 6.2 -11.1°
Maximum altitude 12:31:41 59° 266° (W) 719 3.6 -10.3°
Drops below altitude 10° 12:36:01 10° 187° (S) 1,986 5.9 -9.4°
Sets 12:38:16 0° 184° (S) 2,892 6.8 -9.0°
